Total_Precipitation_Accumulation
0.00 0.00 0.00 0.00 0.00 0.00 0.00 0.00 0.00 0.00 0.00 0.00 0.00 0.00 0.00 0.00 0.00 0.00 0.00 0.00 0.00 0.00 0.00 0.00 0.00 0.01 0.01 0.02 0.02 0.05 0.00 0.00 0.00 0.01 0.02 0.01 0.00 0.00 0.00 0.04 0.01 0.02 0.01 0.01 0.00 0.00 0.00 0.00 0.00
0.00 0.00 0.00 0.00 0.00 0.00 0.00 0.00 0.00 0.00 0.00 0.00 0.00 0.00 0.00 0.00 0.00 0.00 0.00 0.00 0.00 0.00 0.00 0.00 0.01 0.01 0.01 0.03 0.02 0.04 0.01 0.01 0.00 0.00 0.01 0.02 0.00 0.00 0.00 0.03 0.04 0.03 0.01 0.00 0.00 0.00 0.00 0.00 0.00
0.00 0.00 0.00 0.00 0.00 0.00 0.00 0.00 0.00 0.00 0.00 0.00 0.00 0.00 0.00 0.00 0.00 0.00 0.00 0.00 0.00 0.00 0.00 0.00 0.00 0.01 0.01 0.07 0.04 0.06 0.02 0.02 0.00 0.00 0.02 0.02 0.01 0.00 0.00 0.00 0.05 0.02 0.00 0.00 0.00 0.00 0.00 0.00 0.00
0.00 0.00 0.00 0.00 0.00 0.00 0.00 0.00 0.00 0.00 0.00 0.00 0.00 0.00 0.00 0.00 0.00 0.00 0.00 0.00 0.00 0.00 0.00 0.00 0.00 0.00 0.01 0.03 0.04 0.04 0.02 0.02 0.00 0.01 0.02 0.04 0.02 0.01 0.00 0.00 0.04 0.04 0.01 0.00 0.00 0.00 0.00 0.00 0.00
0.00 0.00 0.00 0.00 0.00 0.00 0.00 0.00 0.00 0.00 0.00 0.00 0.00 0.00 0.00 0.00 0.00 0.00 0.00 0.00 0.00 0.00 0.00 0.00 0.00 0.00 0.04 0.02 0.01 0.01 0.03 0.05 0.01 0.00 0.05 0.12 0.15 0.09 0.02 0.00 0.01 0.04 0.02 0.00 0.00 0.00 0.00 0.00 0.00
0.00 0.00 0.00 0.00 0.00 0.00 0.00 0.00 0.00 0.00 0.00 0.00 0.00 0.00 0.00 0.00 0.00 0.00 0.00 0.00 0.00 0.00 0.01 0.00 0.00 0.03 0.08 0.06 0.05 0.06 0.06 0.07 0.05 0.01 0.01 0.08 0.10 0.15 0.14 0.04 0.00 0.01 0.04 0.01 0.00 0.00 0.00 0.00 0.00
0.00 0.00 0.00 0.00 0.00 0.00 0.00 0.00 0.00 0.00 0.00 0.00 0.00 0.00 0.00 0.00 0.00 0.00 0.00 0.00 0.00 0.00 0.00 0.02 0.04 0.06 0.07 0.07 0.09 0.08 0.09 0.08 0.07 0.06 0.05 0.13 0.17 0.18 0.24 0.18 0.06 0.01 0.02 0.04 0.01 0.00 0.00 0.00 0.00
0.00 0.00 0.00 0.00 0.00 0.00 0.00 0.00 0.00 0.00 0.00 0.00 0.00 0.00 0.00 0.00 0.00 0.00 0.00 0.00 0.00 0.00 0.00 0.01 0.02 0.08 0.18 0.21 0.16 0.13 0.14 0.12 0.09 0.09 0.09 0.13 0.11 0.11 0.14 0.23 0.12 0.10 0.05 0.03 0.08 0.11 0.04 0.00 0.00
0.00 0.00 0.00 0.00 0.00 0.00 0.00 0.00 0.00 0.00 0.00 0.00 0.00 0.00 0.00 0.00 0.00 0.00 0.00 0.00 0.00 0.00 0.00 0.00 0.02 0.05 0.06 0.16 0.24 0.19 0.18 0.20 0.18 0.13 0.13 0.12 0.03 0.02 0.03 0.05 0.12 0.15 0.11 0.08 0.10 0.15 0.18 0.09 0.01
0.00 0.00 0.00 0.00 0.00 0.00 0.00 0.00 0.00 0.00 0.00 0.00 0.00 0.00 0.00 0.00 0.00 0.00 0.00 0.00 0.00 0.00 0.00 0.00 0.00 0.01 0.05 0.12 0.20 0.23 0.26 0.24 0.23 0.22 0.16 0.12 0.07 0.07 0.03 0.10 0.20 0.26 0.29 0.24 0.19 0.20 0.29 0.19 0.02
0.00 0.00 0.00 0.00 0.00 0.00 0.00 0.00 0.00 0.00 0.00 0.00 0.00 0.00 0.00 0.00 0.00 0.00 0.00 0.00 0.00 0.00 0.00 0.00 0.00 0.01 0.08 0.16 0.20 0.24 0.30 0.29 0.21 0.18 0.16 0.23 0.19 0.11 0.08 0.13 0.20 0.20 0.25 0.18 0.16 0.19 0.16 0.10 0.03
0.00 0.00 0.00 0.00 0.00 0.00 0.00 0.00 0.00 0.00 0.00 0.00 0.00 0.00 0.00 0.00 0.00 0.00 0.00 0.00 0.00 0.00 0.00 0.00 0.00 0.00 0.02 0.12 0.16 0.17 0.16 0.22 0.17 0.18 0.28 0.24 0.19 0.12 0.14 0.22 0.41 0.45 0.46 0.53 0.27 0.19 0.16 0.07 0.02
0.00 0.00 0.00 0.00 0.00 0.00 0.00 0.00 0.00 0.00 0.00 0.00 0.00 0.00 0.00 0.00 0.00 0.00 0.00 0.00 0.00 0.00 0.00 0.01 0.03 0.02 0.02 0.03 0.12 0.09 0.13 0.14 0.16 0.14 0.17 0.22 0.19 0.13 0.16 0.18 0.30 0.32 0.56 0.78 0.80 0.41 0.24 0.14 0.03
0.00 0.00 0.00 0.00 0.00 0.00 0.00 0.00 0.00 0.00 0.00 0.00 0.00 0.00 0.00 0.00 0.00 0.00 0.00 0.00 0.00 0.00 0.00 0.02 0.05 0.06 0.04 0.02 0.06 0.07 0.07 0.13 0.15 0.11 0.12 0.13 0.15 0.15 0.18 0.18 0.18 0.14 0.43 0.45 0.32 0.36 0.40 0.37 0.16
0.00 0.00 0.00 0.00 0.00 0.00 0.00 0.00 0.00 0.00 0.00 0.00 0.00 0.00 0.00 0.00 0.00 0.00 0.00 0.00 0.00 0.00 0.00 0.00 0.06 0.09 0.04 0.09 0.14 0.29 0.31 0.39 0.40 0.34 0.13 0.08 0.11 0.21 0.29 0.23 0.19 0.22 0.37 0.42 0.47 0.45 0.39 0.46 0.41
0.00 0.00 0.00 0.00 0.00 0.00 0.00 0.00 0.00 0.00 0.00 0.00 0.00 0.00 0.00 0.00 0.00 0.00 0.00 0.00 0.00 0.00 0.00 0.00 0.00 0.02 0.07 0.16 0.20 0.26 0.40 0.53 0.38 0.21 0.16 0.28 0.31 0.49 0.52 0.49 0.30 0.38 0.37 0.35 0.42 0.48 0.69 1.03 0.71
0.00 0.00 0.00 0.00 0.00 0.00 0.00 0.00 0.00 0.00 0.00 0.00 0.00 0.00 0.00 0.00 0.00 0.00 0.00 0.00 0.00 0.00 0.00 0.00 0.00 0.00 0.00 0.00 0.08 0.30 0.22 0.28 0.33 0.34 0.28 0.35 0.29 0.27 0.42 0.43 0.32 0.37 0.31 0.29 0.35 0.45 0.75 0.77 0.64
0.00 0.00 0.00 0.00 0.00 0.00 0.00 0.00 0.00 0.00 0.00 0.00 0.00 0.00 0.00 0.00 0.00 0.00 0.00 0.00 0.00 0.00 0.00 0.00 0.00 0.00 0.00 0.00 0.00 0.01 0.03 0.14 0.24 0.25 0.31 0.25 0.17 0.18 0.40 0.35 0.41 0.55 0.52 0.40 0.50 0.67 0.85 0.83 0.70
0.00 0.00 0.00 0.00 0.00 0.00 0.00 0.00 0.00 0.00 0.00 0.00 0.00 0.00 0.00 0.00 0.00 0.00 0.00 0.00 0.00 0.00 0.00 0.00 0.00 0.00 0.00 0.00 0.00 0.00 0.00 0.08 0.10 0.12 0.19 0.14 0.16 0.38 0.36 0.40 0.48 0.59 0.59 0.57 0.68 0.82 0.81 0.71 0.62
0.00 0.00 0.00 0.00 0.00 0.00 0.00 0.00 0.00 0.00 0.00 0.00 0.00 0.00 0.00 0.00 0.00 0.00 0.00 0.00 0.00 0.00 0.00 0.00 0.00 0.00 0.00 0.00 0.00 0.00 0.00 0.01 0.05 0.07 0.09 0.17 0.28 0.32 0.31 0.39 0.45 0.42 0.45 0.47 0.50 0.66 0.64 0.53 0.44
0.00 0.00 0.00 0.00 0.00 0.00 0.00 0.00 0.00 0.00 0.00 0.00 0.00 0.00 0.00 0.00 0.00 0.00 0.00 0.00 0.00 0.00 0.00 0.00 0.00 0.00 0.00 0.00 0.00 0.00 0.00 0.00 0.04 0.09 0.11 0.42 0.93 1.47 1.79 1.56 0.95 0.64 0.44 0.37 0.36 0.39 0.37 0.43 0.44
0.00 0.00 0.00 0.00 0.00 0.00 0.00 0.00 0.00 0.00 0.00 0.00 0.00 0.00 0.00 0.00 0.00 0.00 0.00 0.00 0.00 0.00 0.00 0.00 0.00 0.00 0.00 0.00 0.00 0.00 0.00 0.00 0.01 0.05 0.15 0.44 0.62 0.85 0.81 0.65 0.47 0.37 0.32 0.33 0.37 0.38 0.38 0.49 0.64
0.00 0.00 0.00 0.00 0.00 0.00 0.00 0.00 0.00 0.00 0.00 0.00 0.00 0.00 0.00 0.00 0.00 0.00 0.00 0.00 0.00 0.00 0.00 0.00 0.00 0.00 0.00 0.00 0.00 0.00 0.00 0.00 0.00 0.02 0.17 0.31 0.23 0.23 0.28 0.25 0.14 0.20 0.36 0.39 0.44 0.43 0.46 0.43 0.50
0.00 0.00 0.00 0.00 0.00 0.00 0.00 0.00 0.00 0.00 0.00 0.00 0.00 0.00 0.00 0.00 0.00 0.00 0.00 0.00 0.01 0.01 0.00 0.00 0.00 0.00 0.00 0.00 0.00 0.00 0.00 0.00 0.02 0.10 0.38 0.29 0.23 0.49 0.74 0.51 0.36 0.36 0.37 0.38 0.41 0.41 0.49 0.41 0.38
0.00 0.00 0.00 0.00 0.00 0.00 0.00 0.00 0.00 0.00 0.00 0.00 0.00 0.00 0.00 0.00 0.00 0.01 0.01 0.01 0.02 0.02 0.01 0.01 0.00 0.00 0.00 0.00 0.00 0.00 0.00 0.00 0.02 0.09 0.37 0.34 0.28 0.75 1.71 1.59 0.98 0.85 0.76 0.58 0.40 0.35 0.37 0.32 0.30
0.00 0.00 0.00 0.00 0.00 0.00 0.00 0.00 0.00 0.00 0.00 0.00 0.00 0.00 0.01 0.02 0.02 0.05 0.06 0.07 0.08 0.07 0.05 0.03 0.02 0.01 0.00 0.00 0.00 0.00 0.00 0.01 0.07 0.10 0.27 0.45 0.33 0.53 0.97 1.33 1.68 1.13 1.07 1.22 0.83 0.47 0.37 0.24 0.21
0.00 0.00 0.00 0.00 0.00 0.00 0.00 0.00 0.00 0.00 0.00 0.00 0.00 0.00 0.00 0.00 0.00 0.00 0.00 0.00 0.00 0.00 0.00 0.00 0.00 0.00 0.00 0.00 0.00 0.00 0.00 0.02 0.04 0.09 0.37 0.30 0.26 0.34 0.69 1.02 1.51 1.48 1.14 0.98 0.87 0.59 0.39 0.32 0.24
0.00 0.00 0.00 0.00 0.03 0.04 0.00 0.00 0.02 0.07 0.08 0.04 0.01 0.02 0.02 0.01 0.00 0.00 0.00 0.00 0.00 0.00 0.00 0.00 0.00 0.00 0.00 0.00 0.00 0.00 0.00 0.02 0.04 0.15 0.27 0.24 0.32 0.45 0.55 1.23 2.26 1.58 1.27 0.98 0.68 0.46 0.38 0.40 0.28
0.00 0.00 0.00 0.01 0.02 0.11 0.09 0.03 0.04 0.06 0.05 0.02 0.01 0.00 0.00 0.00 0.00 0.00 0.00 0.00 0.00 0.00 0.00 0.00 0.00 0.00 0.00 0.00 0.00 0.00 0.01 0.01 0.01 0.05 0.20 0.35 0.44 0.43 0.34 0.66 1.20 1.14 0.93 0.91 0.73 0.51 0.29 0.36 0.38
0.00 0.00 0.00 0.05 0.04 0.05 0.16 0.12 0.03 0.00 0.00 0.00 0.00 0.00 0.00 0.00 0.00 0.00 0.00 0.00 0.00 0.00 0.00 0.00 0.00 0.00 0.00 0.00 0.00 0.00 0.01 0.01 0.02 0.03 0.08 0.16 0.31 0.37 0.37 0.36 0.55 0.90 0.86 0.83 0.64 0.51 0.40 0.32 0.49